Hourly Weather Namibe

Today, 28 September, Monday

Time Temperature Precipitation Wind Pressure Humidity
00:00 +18°C° 0 mm 2 mps 758 mmHg 90%
01:00 +18°C° 0 mm 2 mps 758 mmHg 91%
02:00 +18°C° 0 mm 2 mps 758 mmHg 92%
03:00 +18°C° 0 mm 1 mps 758 mmHg 94%
04:00 +18°C° 0 mm 1 mps 757 mmHg 95%
05:00 +19°C° 0 mm 1 mps 758 mmHg 92%
06:00 +20°C° 0 mm 1 mps 759 mmHg 89%
07:00 +21°C° 0 mm 1 mps 759 mmHg 88%
08:00 +23°C° 0 mm 2 mps 759 mmHg 80%
09:00 +24°C° 0 mm 3 mps 759 mmHg 72%
10:00 +26°C° 0 mm 3 mps 759 mmHg 64%
11:00 +26°C° 0 mm 4 mps 759 mmHg 64%
12:00 +26°C° 0 mm 4 mps 758 mmHg 64%
13:00 +26°C° 0 mm 5 mps 757 mmHg 64%
14:00 +26°C° 0 mm 5 mps 757 mmHg 66%
15:00 +25°C° 0 mm 5 mps 757 mmHg 68%
16:00 +25°C° 0 mm 5 mps 756 mmHg 70%
17:00 +22°C° 0 mm 4 mps 757 mmHg 75%
18:00 +21°C° 0 mm 4 mps 758 mmHg 81%
19:00 +20°C° 0 mm 3 mps 758 mmHg 86%
20:00 +20°C° 0 mm 3 mps 759 mmHg 86%
21:00 +20°C° 0 mm 2 mps 759 mmHg 85%
22:00 +20°C° 0 mm 2 mps 759 mmHg 85%
23:00 +19°C° 0 mm 2 mps 759 mmHg 87%

Tomorrow, 29 September, Tuesday

Time Temperature Precipitation Wind Pressure Humidity
00:00 +19°C° 0 mm 2 mps 759 mmHg 89%
01:00 +19°C° 0 mm 1 mps 758 mmHg 91%
02:00 +18°C° 0 mm 2 mps 758 mmHg 93%
03:00 +18°C° 0 mm 2 mps 758 mmHg 94%
04:00 +17°C° 0 mm 2 mps 758 mmHg 95%
05:00 +18°C° 0 mm 2 mps 758 mmHg 93%
06:00 +19°C° 0 mm 1 mps 759 mmHg 91%
07:00 +20°C° 0 mm 1 mps 759 mmHg 89%
08:00 +20°C° 0 mm 2 mps 759 mmHg 83%
09:00 +21°C° 0 mm 2 mps 759 mmHg 76%
10:00 +24°C° 0 mm 3 mps 759 mmHg 69%
11:00 +25°C° 0 mm 3 mps 758 mmHg 65%
12:00 +26°C° 0 mm 4 mps 757 mmHg 62%
13:00 +27°C° 0 mm 4 mps 757 mmHg 58%
14:00 +26°C° 0 mm 4 mps 756 mmHg 61%
15:00 +25°C° 0 mm 4 mps 756 mmHg 64%
16:00 +23°C° 0 mm 4 mps 756 mmHg 67%
17:00 +22°C° 0 mm 3 mps 756 mmHg 73%
18:00 +20°C° 0 mm 2 mps 757 mmHg 80%
19:00 +20°C° 0 mm 1 mps 758 mmHg 87%
20:00 +20°C° 0 mm 1 mps 758 mmHg 88%
21:00 +19°C° 0 mm 1 mps 758 mmHg 89%
22:00 +19°C° 0 mm 1 mps 759 mmHg 90%
23:00 +20°C° 0 mm 1 mps 759 mmHg 89%

Day after tomorrow, 30 September, Wednesday

Time Temperature Precipitation Wind Pressure Humidity
00:00 +19°C° 0 mm 2 mps 758 mmHg 87%
01:00 +19°C° 0 mm 2 mps 758 mmHg 86%
02:00 +19°C° 0 mm 3 mps 758 mmHg 86%
03:00 +19°C° 0 mm 3 mps 757 mmHg 86%
04:00 +19°C° 0 mm 3 mps 757 mmHg 87%
05:00 +19°C° 0 mm 3 mps 758 mmHg 86%
06:00 +20°C° 0 mm 3 mps 758 mmHg 85%
07:00 +20°C° 0 mm 3 mps 759 mmHg 85%
08:00 +20°C° 0 mm 3 mps 759 mmHg 80%
09:00 +21°C° 0 mm 3 mps 759 mmHg 75%
10:00 +22°C° 0 mm 3 mps 759 mmHg 71%
11:00 +23°C° 0 mm 4 mps 758 mmHg 67%
12:00 +25°C° 0 mm 5 mps 758 mmHg 63%
13:00 +26°C° 0 mm 5 mps 757 mmHg 59%
14:00 +25°C° 0 mm 5 mps 757 mmHg 63%
15:00 +23°C° 0 mm 5 mps 756 mmHg 67%
16:00 +22°C° 0 mm 4 mps 756 mmHg 71%
17:00 +21°C° 0 mm 3 mps 757 mmHg 76%
18:00 +20°C° 0 mm 2 mps 757 mmHg 81%
19:00 +19°C° 0 mm 2 mps 758 mmHg 86%
20:00 +19°C° 0 mm 1 mps 758 mmHg 86%
21:00 +19°C° 0 mm 1 mps 759 mmHg 87%
22:00 +17°C° 0 mm 0 mps 759 mmHg 88%
23:00 +17°C° 0 mm 0 mps 759 mmHg 88%

1 October, Thursday

Time Temperature Precipitation Wind Pressure Humidity
00:00 +19°C° 0 mm 1 mps 759 mmHg 88%
01:00 +19°C° 0 mm 1 mps 758 mmHg 88%
02:00 +19°C° 0 mm 1 mps 758 mmHg 90%
03:00 +18°C° 0 mm 2 mps 758 mmHg 91%
04:00 +17°C° 0 mm 2 mps 758 mmHg 93%
05:00 +18°C° 0 mm 2 mps 758 mmHg 91%
06:00 +18°C° 0 mm 2 mps 758 mmHg 89%
07:00 +18°C° 0 mm 2 mps 758 mmHg 88%
08:00 +21°C° 0 mm 2 mps 758 mmHg 77%
09:00 +24°C° 0 mm 2 mps 758 mmHg 66%
10:00 +27°C° 0 mm 2 mps 758 mmHg 55%
11:00 +27°C° 0 mm 3 mps 757 mmHg 54%
12:00 +27°C° 0 mm 4 mps 757 mmHg 53%
13:00 +28°C° 0 mm 5 mps 756 mmHg 53%
14:00 +26°C° 0 mm 5 mps 756 mmHg 57%
15:00 +25°C° 0 mm 5 mps 755 mmHg 61%
16:00 +23°C° 0 mm 5 mps 755 mmHg 65%
17:00 +22°C° 0 mm 4 mps 756 mmHg 72%
18:00 +20°C° 0 mm 4 mps 757 mmHg 78%
19:00 +19°C° 0 mm 3 mps 757 mmHg 85%
20:00 +18°C° 0 mm 2 mps 758 mmHg 85%
21:00 +18°C° 0 mm 2 mps 759 mmHg 85%
22:00 +19°C° 0 mm 1 mps 759 mmHg 85%
23:00 +19°C° 0 mm 1 mps 759 mmHg 84%

2 October, Friday

Time Temperature Precipitation Wind Pressure Humidity
00:00 +20°C° 0 mm 1 mps 759 mmHg 82%
01:00 +19°C° 0 mm 2 mps 759 mmHg 81%
02:00 +20°C° 0 mm 1 mps 759 mmHg 82%
03:00 +20°C° 0 mm 1 mps 758 mmHg 82%
04:00 +20°C° 0 mm 1 mps 758 mmHg 82%
05:00 +20°C° 0 mm 1 mps 758 mmHg 81%
06:00 +20°C° 0 mm 1 mps 759 mmHg 80%
07:00 +20°C° 0 mm 1 mps 759 mmHg 79%
08:00 +23°C° 0 mm 2 mps 759 mmHg 70%
09:00 +25°C° 0 mm 2 mps 759 mmHg 61%
10:00 +27°C° 0 mm 3 mps 759 mmHg 52%
11:00 +27°C° 0 mm 4 mps 758 mmHg 52%
12:00 +27°C° 0 mm 5 mps 758 mmHg 53%
13:00 +28°C° 0 mm 5 mps 757 mmHg 53%
14:00 +26°C° 0 mm 5 mps 757 mmHg 57%
15:00 +25°C° 0 mm 5 mps 756 mmHg 61%
16:00 +23°C° 0 mm 5 mps 756 mmHg 65%
17:00 +22°C° 0 mm 4 mps 757 mmHg 72%
18:00 +20°C° 0 mm 3 mps 757 mmHg 79%
19:00 +19°C° 0 mm 2 mps 758 mmHg 86%
20:00 +18°C° 0 mm 2 mps 758 mmHg 88%
21:00 +19°C° 0 mm 1 mps 759 mmHg 89%
22:00 +19°C° 0 mm 1 mps 759 mmHg 91%
23:00 +18°C° 0 mm 1 mps 759 mmHg 92%

3 October, Saturday

Time Temperature Precipitation Wind Pressure Humidity
00:00 +18°C° 0 mm 1 mps 759 mmHg 92%
01:00 +18°C° 0 mm 1 mps 759 mmHg 93%
02:00 +18°C° 0 mm 1 mps 758 mmHg 93%
03:00 +16°C° 0 mm 1 mps 758 mmHg 94%
04:00 +16°C° 0 mm 1 mps 758 mmHg 94%
05:00 +18°C° 0 mm 1 mps 759 mmHg 92%
06:00 +19°C° 0 mm 1 mps 759 mmHg 89%
07:00 +20°C° 0 mm 1 mps 760 mmHg 86%
08:00 +22°C° 0 mm 1 mps 760 mmHg 76%
09:00 +25°C° 0 mm 2 mps 760 mmHg 65%
10:00 +27°C° 0 mm 3 mps 760 mmHg 54%
11:00 +28°C° 0 mm 3 mps 759 mmHg 53%
12:00 +28°C° 0 mm 4 mps 758 mmHg 52%
13:00 +28°C° 0 mm 5 mps 757 mmHg 51%
14:00 +27°C° 0 mm 5 mps 757 mmHg 55%
15:00 +26°C° 0 mm 5 mps 756 mmHg 59%
16:00 +25°C° 0 mm 5 mps 756 mmHg 63%
17:00 +22°C° 0 mm 5 mps 757 mmHg 68%
18:00 +20°C° 0 mm 4 mps 758 mmHg 74%
19:00 +19°C° 0 mm 3 mps 758 mmHg 80%
20:00 +18°C° 0 mm 3 mps 759 mmHg 80%
21:00 +18°C° 0 mm 2 mps 759 mmHg 81%
22:00 +17°C° 0 mm 2 mps 759 mmHg 82%
23:00 +17°C° 0 mm 2 mps 759 mmHg 82%
Show more